Year,Month,Day,Hour,Minute,Value (Times are PST for temperature in C)
2016,08,19,00,00,21.30
2016,08,19,00,01,21.30
2016,08,19,00,02,21.30
2016,08,19,00,03,21.30
2016,08,19,00,04,21.20
2016,08,19,00,05,21.20
2016,08,19,00,06,21.20
2016,08,19,00,07,21.20
2016,08,19,00,08,21.20
2016,08,19,00,09,21.10
2016,08,19,00,10,21.10
2016,08,19,00,11,21.10
2016,08,19,00,12,21.10
2016,08,19,00,13,21.10
2016,08,19,00,14,21.00
2016,08,19,00,15,21.00
2016,08,19,00,16,21.00
2016,08,19,00,17,20.90
2016,08,19,00,18,20.90
2016,08,19,00,19,20.90
2016,08,19,00,20,20.90
2016,08,19,00,21,20.90
2016,08,19,00,22,20.90
2016,08,19,00,23,20.80
2016,08,19,00,24,20.80
2016,08,19,00,25,20.80
2016,08,19,00,26,20.70
2016,08,19,00,27,20.70
2016,08,19,00,28,20.60
2016,08,19,00,29,20.60
2016,08,19,00,30,20.50
2016,08,19,00,31,20.40
2016,08,19,00,32,20.40
2016,08,19,00,33,20.30
2016,08,19,00,34,20.30
2016,08,19,00,35,20.30
2016,08,19,00,36,20.30
2016,08,19,00,37,20.30
2016,08,19,00,38,20.30
2016,08,19,00,39,20.30
2016,08,19,00,40,20.30
2016,08,19,00,41,20.30
2016,08,19,00,42,20.40
2016,08,19,00,43,20.40
2016,08,19,00,44,20.40
2016,08,19,00,45,20.40
2016,08,19,00,46,20.40
2016,08,19,00,47,20.40
2016,08,19,00,48,20.40
2016,08,19,00,49,20.40
2016,08,19,00,50,20.40
2016,08,19,00,51,20.40
2016,08,19,00,52,20.40
2016,08,19,00,53,20.40
2016,08,19,00,54,20.40
2016,08,19,00,55,20.30
2016,08,19,00,56,20.30
2016,08,19,00,57,20.30
2016,08,19,00,58,20.30
2016,08,19,00,59,20.30
2016,08,19,01,00,20.20
2016,08,19,01,01,20.20
2016,08,19,01,02,20.20
2016,08,19,01,03,20.10
2016,08,19,01,04,20.10
2016,08,19,01,05,20.00
2016,08,19,01,06,20.00
2016,08,19,01,07,19.90
2016,08,19,01,08,19.90
2016,08,19,01,09,19.90
2016,08,19,01,10,19.80
2016,08,19,01,11,19.80
2016,08,19,01,12,19.80
2016,08,19,01,13,19.70
2016,08,19,01,14,19.70
2016,08,19,01,15,19.70
2016,08,19,01,16,19.70
2016,08,19,01,17,19.70
2016,08,19,01,18,19.70
2016,08,19,01,19,19.70
2016,08,19,01,20,19.70
2016,08,19,01,21,19.70
2016,08,19,01,22,19.80
2016,08,19,01,23,19.80
2016,08,19,01,24,19.80
2016,08,19,01,25,19.80
2016,08,19,01,26,19.90
2016,08,19,01,27,19.90
2016,08,19,01,28,19.90
2016,08,19,01,29,19.90
2016,08,19,01,30,19.80
2016,08,19,01,31,19.80
2016,08,19,01,32,19.80
2016,08,19,01,33,19.80
2016,08,19,01,34,19.80
2016,08,19,01,35,19.80
2016,08,19,01,36,19.80
2016,08,19,01,37,19.70
2016,08,19,01,38,19.70
2016,08,19,01,39,19.70
2016,08,19,01,40,19.60
2016,08,19,01,41,19.50
2016,08,19,01,42,19.40
2016,08,19,01,43,19.40
2016,08,19,01,44,19.30
2016,08,19,01,45,19.20
2016,08,19,01,46,19.10
2016,08,19,01,47,19.10
2016,08,19,01,48,19.00
2016,08,19,01,49,19.00
2016,08,19,01,50,19.00
2016,08,19,01,51,19.00
2016,08,19,01,52,18.90
2016,08,19,01,53,18.90
2016,08,19,01,54,18.90
2016,08,19,01,55,18.90
2016,08,19,01,56,18.90
2016,08,19,01,57,18.80
2016,08,19,01,58,18.80
2016,08,19,01,59,18.80
2016,08,19,02,00,18.70
2016,08,19,02,01,18.80
2016,08,19,02,02,18.80
2016,08,19,02,03,18.80
2016,08,19,02,04,18.80
2016,08,19,02,05,18.80
2016,08,19,02,06,18.80
2016,08,19,02,07,18.80
2016,08,19,02,08,18.80
2016,08,19,02,09,18.80
2016,08,19,02,10,18.70
2016,08,19,02,11,18.70
2016,08,19,02,12,18.70
2016,08,19,02,13,18.70
2016,08,19,02,14,18.70
2016,08,19,02,15,18.70
2016,08,19,02,16,18.70
2016,08,19,02,17,18.60
2016,08,19,02,18,18.60
2016,08,19,02,19,18.60
2016,08,19,02,20,18.60
2016,08,19,02,21,18.60
2016,08,19,02,22,18.60
2016,08,19,02,23,18.60
2016,08,19,02,24,18.60
2016,08,19,02,25,18.60
2016,08,19,02,26,18.60
2016,08,19,02,27,18.50
2016,08,19,02,28,18.50
2016,08,19,02,29,18.50
2016,08,19,02,30,18.40
2016,08,19,02,31,18.40
2016,08,19,02,32,18.40
2016,08,19,02,33,18.40
2016,08,19,02,34,18.40
2016,08,19,02,35,18.40
2016,08,19,02,36,18.40
2016,08,19,02,37,18.40
2016,08,19,02,38,18.40
2016,08,19,02,39,18.40
2016,08,19,02,40,18.40
2016,08,19,02,41,18.40
2016,08,19,02,42,18.40
2016,08,19,02,43,18.40
2016,08,19,02,44,18.40
2016,08,19,02,45,18.40
2016,08,19,02,46,18.40
2016,08,19,02,47,18.40
2016,08,19,02,48,18.30
2016,08,19,02,49,18.30
2016,08,19,02,50,18.20
2016,08,19,02,51,18.20
2016,08,19,02,52,18.20
2016,08,19,02,53,18.20
2016,08,19,02,54,18.20
2016,08,19,02,55,18.20
2016,08,19,02,56,18.20
2016,08,19,02,57,18.20
2016,08,19,02,58,18.20
2016,08,19,02,59,18.20
2016,08,19,03,00,18.20
2016,08,19,03,01,18.20
2016,08,19,03,02,18.10
2016,08,19,03,03,18.10
2016,08,19,03,04,18.10
2016,08,19,03,05,18.10
2016,08,19,03,06,18.10
2016,08,19,03,07,18.10
2016,08,19,03,08,18.10
2016,08,19,03,09,18.10
2016,08,19,03,10,18.10
2016,08,19,03,11,18.10
2016,08,19,03,12,18.10
2016,08,19,03,13,18.10
2016,08,19,03,14,18.10
2016,08,19,03,15,18.10
2016,08,19,03,16,18.10
2016,08,19,03,17,18.10
2016,08,19,03,18,18.10
2016,08,19,03,19,18.10
2016,08,19,03,20,18.10
2016,08,19,03,21,18.10
2016,08,19,03,22,18.10
2016,08,19,03,23,18.20
2016,08,19,03,24,18.20
2016,08,19,03,25,18.20
2016,08,19,03,26,18.10
2016,08,19,03,27,18.10
2016,08,19,03,28,18.10
2016,08,19,03,29,18.10
2016,08,19,03,30,18.10
2016,08,19,03,31,18.10
2016,08,19,03,32,18.10
2016,08,19,03,33,18.10
2016,08,19,03,34,18.10
2016,08,19,03,35,18.10
2016,08,19,03,36,18.10
2016,08,19,03,37,18.10
2016,08,19,03,38,18.10
2016,08,19,03,39,18.10
2016,08,19,03,40,18.10
2016,08,19,03,41,18.10
2016,08,19,03,42,18.10
2016,08,19,03,43,18.10
2016,08,19,03,44,18.10
2016,08,19,03,45,18.10
2016,08,19,03,46,18.10
2016,08,19,03,47,18.00
2016,08,19,03,48,18.00
2016,08,19,03,49,17.90
2016,08,19,03,50,18.00
2016,08,19,03,51,18.00
2016,08,19,03,52,18.00
2016,08,19,03,53,18.00
2016,08,19,03,54,18.00
2016,08,19,03,55,18.00
2016,08,19,03,56,18.00
2016,08,19,03,57,18.00
2016,08,19,03,58,18.00
2016,08,19,03,59,18.00
2016,08,19,04,00,18.00
2016,08,19,04,01,18.00
2016,08,19,04,02,18.00
2016,08,19,04,03,18.00
2016,08,19,04,04,18.00
2016,08,19,04,05,18.00
2016,08,19,04,06,18.00
2016,08,19,04,07,18.00
2016,08,19,04,08,18.00
2016,08,19,04,09,18.00
2016,08,19,04,10,18.00
2016,08,19,04,11,18.00
2016,08,19,04,12,18.00
2016,08,19,04,13,18.10
2016,08,19,04,14,18.10
2016,08,19,04,15,18.10
2016,08,19,04,16,18.10
2016,08,19,04,17,18.10
2016,08,19,04,18,18.20
2016,08,19,04,19,18.20
2016,08,19,04,20,18.20
2016,08,19,04,21,18.20
2016,08,19,04,22,18.20
2016,08,19,04,23,18.20
2016,08,19,04,24,18.20
2016,08,19,04,25,18.20
2016,08,19,04,26,18.30
2016,08,19,04,27,18.30
2016,08,19,04,28,18.30
2016,08,19,04,29,18.20
2016,08,19,04,30,18.20
2016,08,19,04,31,18.20
2016,08,19,04,32,18.20
2016,08,19,04,33,18.20
2016,08,19,04,34,18.20
2016,08,19,04,35,18.20
2016,08,19,04,36,18.20
2016,08,19,04,37,18.20
2016,08,19,04,38,18.20
2016,08,19,04,39,18.20
2016,08,19,04,40,18.20
2016,08,19,04,41,18.30
2016,08,19,04,42,18.30
2016,08,19,04,43,18.30
2016,08,19,04,44,18.30
2016,08,19,04,45,18.30
2016,08,19,04,46,18.30
2016,08,19,04,47,18.20
2016,08,19,04,48,18.20
2016,08,19,04,49,18.20
2016,08,19,04,50,18.20
2016,08,19,04,51,18.20
2016,08,19,04,52,18.10
2016,08,19,04,53,18.10
2016,08,19,04,54,18.10
2016,08,19,04,55,18.10
2016,08,19,04,56,18.00
2016,08,19,04,57,18.00
2016,08,19,04,58,18.00
2016,08,19,04,59,18.00
2016,08,19,05,00,17.90
2016,08,19,05,01,17.90
2016,08,19,05,02,17.90
2016,08,19,05,03,17.90
2016,08,19,05,04,17.90
2016,08,19,05,05,17.90
2016,08,19,05,06,17.80
2016,08,19,05,07,17.80
2016,08,19,05,08,17.70
2016,08,19,05,09,17.70
2016,08,19,05,10,17.70
2016,08,19,05,11,17.60
2016,08,19,05,12,17.60
2016,08,19,05,13,17.60
2016,08,19,05,14,17.60
2016,08,19,05,15,17.60
2016,08,19,05,16,17.60
2016,08,19,05,17,17.60
2016,08,19,05,18,17.60
2016,08,19,05,19,17.60
2016,08,19,05,20,17.60
2016,08,19,05,21,17.60
2016,08,19,05,22,17.60
2016,08,19,05,23,17.60
2016,08,19,05,24,17.60
2016,08,19,05,25,17.60
2016,08,19,05,26,17.50
2016,08,19,05,27,17.50
2016,08,19,05,28,17.40
2016,08,19,05,29,17.40
2016,08,19,05,30,17.40
2016,08,19,05,31,17.30
2016,08,19,05,32,17.30
2016,08,19,05,33,17.30
2016,08,19,05,34,17.30
2016,08,19,05,35,17.20
2016,08,19,05,36,17.20
2016,08,19,05,37,17.20
2016,08,19,05,38,17.10
2016,08,19,05,39,17.10
2016,08,19,05,40,17.10
2016,08,19,05,41,17.00
2016,08,19,05,42,16.90
2016,08,19,05,43,16.90
2016,08,19,05,44,16.80
2016,08,19,05,45,16.80
2016,08,19,05,46,16.80
2016,08,19,05,47,16.70
2016,08,19,05,48,16.70
2016,08,19,05,49,16.70
2016,08,19,05,50,16.70
2016,08,19,05,51,16.70
2016,08,19,05,52,16.70
2016,08,19,05,53,16.70
2016,08,19,05,54,16.70
2016,08,19,05,55,16.70
2016,08,19,05,56,16.70
2016,08,19,05,57,16.70
2016,08,19,05,58,16.70
2016,08,19,05,59,16.70
2016,08,19,06,00,16.70
2016,08,19,06,01,16.70
2016,08,19,06,02,16.70
2016,08,19,06,03,16.70
2016,08,19,06,04,16.70
2016,08,19,06,05,16.70
2016,08,19,06,06,16.70
2016,08,19,06,07,16.70
2016,08,19,06,08,16.70
2016,08,19,06,09,16.70
2016,08,19,06,10,16.70
2016,08,19,06,11,16.70
2016,08,19,06,12,16.70
2016,08,19,06,13,16.70
2016,08,19,06,14,16.70
2016,08,19,06,15,16.70
2016,08,19,06,16,16.80
2016,08,19,06,17,16.80
2016,08,19,06,18,16.80
2016,08,19,06,19,16.80
2016,08,19,06,20,16.90
2016,08,19,06,21,16.90
2016,08,19,06,22,16.90
2016,08,19,06,23,16.90
2016,08,19,06,24,16.90
2016,08,19,06,25,16.90
2016,08,19,06,26,16.90
2016,08,19,06,27,16.90
2016,08,19,06,28,16.90
2016,08,19,06,29,16.90
2016,08,19,06,30,16.90
2016,08,19,06,31,16.90
2016,08,19,06,32,16.90
2016,08,19,06,33,16.90
2016,08,19,06,34,16.90
2016,08,19,06,35,16.80
2016,08,19,06,36,16.80
2016,08,19,06,37,16.80
2016,08,19,06,38,16.80
2016,08,19,06,39,16.80
2016,08,19,06,40,16.90
2016,08,19,06,41,16.90
2016,08,19,06,42,16.90
2016,08,19,06,43,16.90
2016,08,19,06,44,16.90
2016,08,19,06,45,16.90
2016,08,19,06,46,16.80
2016,08,19,06,47,16.80
2016,08,19,06,48,16.80
2016,08,19,06,49,16.80
2016,08,19,06,50,16.80
2016,08,19,06,51,16.80
2016,08,19,06,52,16.80
2016,08,19,06,53,16.90
2016,08,19,06,54,16.90
2016,08,19,06,55,16.90
2016,08,19,06,56,16.90
2016,08,19,06,57,16.90
2016,08,19,06,58,16.90
2016,08,19,06,59,16.90
2016,08,19,07,00,16.90
2016,08,19,07,01,16.90
2016,08,19,07,02,16.90
2016,08,19,07,03,16.90
2016,08,19,07,04,16.80
2016,08,19,07,05,16.80
2016,08,19,07,06,16.80
2016,08,19,07,07,16.80
2016,08,19,07,08,16.80
2016,08,19,07,09,16.80
2016,08,19,07,10,16.80
2016,08,19,07,11,16.80
2016,08,19,07,12,16.90
2016,08,19,07,13,16.90
2016,08,19,07,14,16.90
2016,08,19,07,15,16.90
2016,08,19,07,16,16.90
2016,08,19,07,17,17.00
2016,08,19,07,18,17.00
2016,08,19,07,19,17.10
2016,08,19,07,20,17.10
2016,08,19,07,21,17.20
2016,08,19,07,22,17.30
2016,08,19,07,23,17.30
2016,08,19,07,24,17.40
2016,08,19,07,25,17.40
2016,08,19,07,26,17.40
2016,08,19,07,27,17.50
2016,08,19,07,28,17.50
2016,08,19,07,29,17.50
2016,08,19,07,30,17.60
2016,08,19,07,31,17.60
2016,08,19,07,32,17.60
2016,08,19,07,33,17.60
2016,08,19,07,34,17.60
2016,08,19,07,35,17.50
2016,08,19,07,36,17.50
2016,08,19,07,37,17.40
2016,08,19,07,38,17.40
2016,08,19,07,39,17.40
2016,08,19,07,40,17.40
2016,08,19,07,41,17.40
2016,08,19,07,42,17.40
2016,08,19,07,43,17.40
2016,08,19,07,44,17.40
2016,08,19,07,45,17.50
2016,08,19,07,46,17.50
2016,08,19,07,47,17.50
2016,08,19,07,48,17.50
2016,08,19,07,49,17.50
2016,08,19,07,50,17.60
2016,08,19,07,51,17.60
2016,08,19,07,52,17.60
2016,08,19,07,53,17.60
2016,08,19,07,54,17.60
2016,08,19,07,55,17.60
2016,08,19,07,56,17.60
2016,08,19,07,57,17.60
2016,08,19,07,58,17.50
2016,08,19,07,59,17.50
2016,08,19,08,00,17.50
2016,08,19,08,01,17.50
2016,08,19,08,02,17.50
2016,08,19,08,03,17.50
2016,08,19,08,04,17.50
2016,08,19,08,05,17.50
2016,08,19,08,06,17.50
2016,08,19,08,07,17.50
2016,08,19,08,08,17.50
2016,08,19,08,09,17.50
2016,08,19,08,10,17.50
2016,08,19,08,11,17.50
2016,08,19,08,12,17.50
2016,08,19,08,13,17.50
2016,08,19,08,14,17.60
2016,08,19,08,15,17.60
2016,08,19,08,16,17.60
2016,08,19,08,17,17.60
2016,08,19,08,18,17.60
2016,08,19,08,19,17.70
2016,08,19,08,20,17.70
2016,08,19,08,21,17.70
2016,08,19,08,22,17.70
2016,08,19,08,23,17.70
2016,08,19,08,24,17.80
2016,08,19,08,25,17.80
2016,08,19,08,26,17.80
2016,08,19,08,27,17.90
2016,08,19,08,28,17.90
2016,08,19,08,29,17.90
2016,08,19,08,30,17.90
2016,08,19,08,31,17.90
2016,08,19,08,32,18.00
2016,08,19,08,33,18.00
2016,08,19,08,34,18.10
2016,08,19,08,35,18.10
2016,08,19,08,36,18.10
2016,08,19,08,37,18.20
2016,08,19,08,38,18.20
2016,08,19,08,39,18.20
2016,08,19,08,40,18.20
2016,08,19,08,41,18.20
2016,08,19,08,42,18.20
2016,08,19,08,43,18.30
2016,08,19,08,44,18.30
2016,08,19,08,45,18.30
2016,08,19,08,46,18.30
2016,08,19,08,47,18.30
2016,08,19,08,48,18.40
2016,08,19,08,49,18.40
2016,08,19,08,50,18.40
2016,08,19,08,51,18.50
2016,08,19,08,52,18.50
2016,08,19,08,53,18.60
2016,08,19,08,54,18.60
2016,08,19,08,55,18.60
2016,08,19,08,56,18.70
2016,08,19,08,57,18.70
2016,08,19,08,58,18.70
2016,08,19,08,59,18.80
2016,08,19,09,00,18.80
2016,08,19,09,01,18.90
2016,08,19,09,02,18.90
2016,08,19,09,03,19.00
2016,08,19,09,04,19.00
2016,08,19,09,05,19.00
2016,08,19,09,06,19.10
2016,08,19,09,07,19.10
2016,08,19,09,08,19.20
2016,08,19,09,09,19.20
2016,08,19,09,10,19.30
2016,08,19,09,11,19.30
2016,08,19,09,12,19.30
2016,08,19,09,13,19.40
2016,08,19,09,14,19.40
2016,08,19,09,15,19.50
2016,08,19,09,16,19.60
2016,08,19,09,17,19.60
2016,08,19,09,18,19.70
2016,08,19,09,19,19.70
2016,08,19,09,20,19.80
2016,08,19,09,21,19.80
2016,08,19,09,22,19.80
2016,08,19,09,23,19.90
2016,08,19,09,24,19.90
2016,08,19,09,25,20.00
2016,08,19,09,26,20.00
2016,08,19,09,27,20.00
2016,08,19,09,28,20.10
2016,08,19,09,29,20.10
2016,08,19,09,30,20.20
2016,08,19,09,31,20.20
2016,08,19,09,32,20.30
2016,08,19,09,33,20.30
2016,08,19,09,34,20.30
2016,08,19,09,35,20.30
2016,08,19,09,36,20.40
2016,08,19,09,37,20.50
2016,08,19,09,38,20.50
2016,08,19,09,39,20.50
2016,08,19,09,40,20.60
2016,08,19,09,41,20.70
2016,08,19,09,42,20.70
2016,08,19,09,43,20.80
2016,08,19,09,44,20.80
2016,08,19,09,45,20.80
2016,08,19,09,46,20.90
2016,08,19,09,47,20.90
2016,08,19,09,48,21.00
2016,08,19,09,49,21.00
2016,08,19,09,50,21.10
2016,08,19,09,51,21.10
2016,08,19,09,52,21.10
2016,08,19,09,53,21.10
2016,08,19,09,54,21.20
2016,08,19,09,55,21.20
2016,08,19,09,56,21.20
2016,08,19,09,57,21.20
2016,08,19,09,58,21.20
2016,08,19,09,59,21.30
2016,08,19,10,00,21.30
2016,08,19,10,01,21.30
2016,08,19,10,02,21.30
2016,08,19,10,03,21.30
2016,08,19,10,04,21.40
2016,08,19,10,05,21.50
2016,08,19,10,06,21.50
2016,08,19,10,07,21.60
2016,08,19,10,08,21.60
2016,08,19,10,09,21.60
2016,08,19,10,10,21.70
2016,08,19,10,11,21.70
2016,08,19,10,12,21.70
2016,08,19,10,13,21.70
2016,08,19,10,14,21.80
2016,08,19,10,15,21.90
2016,08,19,10,16,22.00
2016,08,19,10,17,22.00
2016,08,19,10,18,22.10
2016,08,19,10,19,22.10
2016,08,19,10,20,22.10
2016,08,19,10,21,22.20
2016,08,19,10,22,22.20
2016,08,19,10,23,22.20
2016,08,19,10,24,22.30
2016,08,19,10,25,22.30
2016,08,19,10,26,22.30
2016,08,19,10,27,22.30
2016,08,19,10,28,22.30
2016,08,19,10,29,22.30
2016,08,19,10,30,22.40
2016,08,19,10,31,22.40
2016,08,19,10,32,22.50
2016,08,19,10,33,22.60
2016,08,19,10,34,22.70
2016,08,19,10,35,22.70
2016,08,19,10,36,22.70
2016,08,19,10,37,22.80
2016,08,19,10,38,22.80
2016,08,19,10,39,22.80
2016,08,19,10,40,22.80
2016,08,19,10,41,22.90
2016,08,19,10,42,22.90
2016,08,19,10,43,23.00
2016,08,19,10,44,23.10
2016,08,19,10,45,23.10
2016,08,19,10,46,23.10
2016,08,19,10,47,23.20
2016,08,19,10,48,23.20
2016,08,19,10,49,23.30
2016,08,19,10,50,23.40
2016,08,19,10,51,23.50
2016,08,19,10,52,23.60
2016,08,19,10,53,23.70
2016,08,19,10,54,23.70
2016,08,19,10,55,23.80
2016,08,19,10,56,23.80
2016,08,19,10,57,23.80
2016,08,19,10,58,23.80
2016,08,19,10,59,23.80
2016,08,19,11,00,23.90
2016,08,19,11,01,23.90
2016,08,19,11,02,23.80
2016,08,19,11,03,23.80
2016,08,19,11,04,23.90
2016,08,19,11,05,23.90
2016,08,19,11,06,23.90
2016,08,19,11,07,23.90
2016,08,19,11,08,24.00
2016,08,19,11,09,24.00
2016,08,19,11,10,24.10
2016,08,19,11,11,24.10
2016,08,19,11,12,24.10
2016,08,19,11,13,24.10
2016,08,19,11,14,24.10
2016,08,19,11,15,24.20
2016,08,19,11,16,24.20
2016,08,19,11,17,24.20
2016,08,19,11,18,24.20
2016,08,19,11,19,24.30
2016,08,19,11,20,24.30
2016,08,19,11,21,24.40
2016,08,19,11,22,24.40
2016,08,19,11,23,24.40
2016,08,19,11,24,24.50
2016,08,19,11,25,24.60
2016,08,19,11,26,24.60
2016,08,19,11,27,24.70
2016,08,19,11,28,24.70
2016,08,19,11,29,24.80
2016,08,19,11,30,24.90
2016,08,19,11,31,24.90
2016,08,19,11,32,25.00
2016,08,19,11,33,25.00
2016,08,19,11,34,25.00
2016,08,19,11,35,25.00
2016,08,19,11,36,25.00
2016,08,19,11,37,25.00
2016,08,19,11,38,25.00
2016,08,19,11,39,25.10
2016,08,19,11,40,25.00
2016,08,19,11,41,24.90
2016,08,19,11,42,24.90
2016,08,19,11,43,24.90
2016,08,19,11,44,24.90
2016,08,19,11,45,24.90
2016,08,19,11,46,24.90
2016,08,19,11,47,24.90
2016,08,19,11,48,25.00
2016,08,19,11,49,25.10
2016,08,19,11,50,25.10
2016,08,19,11,51,25.20
2016,08,19,11,52,25.20
2016,08,19,11,53,25.30
2016,08,19,11,54,25.30
2016,08,19,11,55,25.40
2016,08,19,11,56,25.50
2016,08,19,11,57,25.50
2016,08,19,11,58,25.50
2016,08,19,11,59,25.60
2016,08,19,12,00,25.70
2016,08,19,12,01,25.70
2016,08,19,12,02,25.80
2016,08,19,12,03,25.80
2016,08,19,12,04,25.90
2016,08,19,12,05,25.90
2016,08,19,12,06,25.90
2016,08,19,12,07,26.00
2016,08,19,12,08,26.10
2016,08,19,12,09,26.20
2016,08,19,12,10,26.30
2016,08,19,12,11,26.40
2016,08,19,12,12,26.50
2016,08,19,12,13,26.40
2016,08,19,12,14,26.50
2016,08,19,12,15,26.50
2016,08,19,12,16,26.50
2016,08,19,12,17,26.50
2016,08,19,12,18,26.50
2016,08,19,12,19,26.50
2016,08,19,12,20,26.60
2016,08,19,12,21,26.60
2016,08,19,12,22,26.60
2016,08,19,12,23,26.60
2016,08,19,12,24,26.70
2016,08,19,12,25,26.70
2016,08,19,12,26,26.80
2016,08,19,12,27,26.80
2016,08,19,12,28,26.80
2016,08,19,12,29,26.90
2016,08,19,12,30,27.00
2016,08,19,12,31,27.10
2016,08,19,12,32,27.20
2016,08,19,12,33,27.30
2016,08,19,12,34,27.40
2016,08,19,12,35,27.40
2016,08,19,12,36,27.50
2016,08,19,12,37,27.50
2016,08,19,12,38,27.60
2016,08,19,12,39,27.70
2016,08,19,12,40,27.80
2016,08,19,12,41,27.80
2016,08,19,12,42,27.80
2016,08,19,12,43,27.80
2016,08,19,12,44,27.80
2016,08,19,12,45,27.80
2016,08,19,12,46,27.90
2016,08,19,12,47,27.90
2016,08,19,12,48,27.90
2016,08,19,12,49,27.80
2016,08,19,12,50,27.80
2016,08,19,12,51,27.80
2016,08,19,12,52,27.80
2016,08,19,12,53,27.90
2016,08,19,12,54,27.90
2016,08,19,12,55,28.00
2016,08,19,12,56,28.10
2016,08,19,12,57,28.10
2016,08,19,12,58,28.20
2016,08,19,12,59,28.30
2016,08,19,13,00,28.30
2016,08,19,13,01,28.40
2016,08,19,13,02,28.50
2016,08,19,13,03,28.50
2016,08,19,13,04,28.60
2016,08,19,13,05,28.70
2016,08,19,13,06,28.90
2016,08,19,13,07,28.90
2016,08,19,13,08,29.00
2016,08,19,13,09,29.00
2016,08,19,13,10,29.00
2016,08,19,13,11,29.00
2016,08,19,13,12,29.10
2016,08,19,13,13,29.20
2016,08,19,13,14,29.20
2016,08,19,13,15,29.10
2016,08,19,13,16,29.00
2016,08,19,13,17,28.90
2016,08,19,13,18,28.80
2016,08,19,13,19,28.80
2016,08,19,13,20,28.80
2016,08,19,13,21,28.80
2016,08,19,13,22,28.80
2016,08,19,13,23,28.90
2016,08,19,13,24,29.00
2016,08,19,13,25,29.10
2016,08,19,13,26,29.20
2016,08,19,13,27,29.30
2016,08,19,13,28,29.40
2016,08,19,13,29,29.40
2016,08,19,13,30,29.40
2016,08,19,13,31,29.40
2016,08,19,13,32,29.40
2016,08,19,13,33,29.50
2016,08,19,13,34,29.40
2016,08,19,13,35,29.40
2016,08,19,13,36,29.30
2016,08,19,13,37,29.20
2016,08,19,13,38,29.10
2016,08,19,13,39,29.00
2016,08,19,13,40,28.90
2016,08,19,13,41,28.90
2016,08,19,13,42,28.80
2016,08,19,13,43,28.80
2016,08,19,13,44,28.80
2016,08,19,13,45,28.80
2016,08,19,13,46,28.90
2016,08,19,13,47,28.90
2016,08,19,13,48,29.10
2016,08,19,13,49,29.20
2016,08,19,13,50,29.30
2016,08,19,13,51,29.50
2016,08,19,13,52,29.60
2016,08,19,13,53,29.70
2016,08,19,13,54,29.70
2016,08,19,13,55,29.80
2016,08,19,13,56,29.70
2016,08,19,13,57,29.70
2016,08,19,13,58,29.60
2016,08,19,13,59,29.50
2016,08,19,14,00,29.40
2016,08,19,14,01,29.40
2016,08,19,14,02,29.40
2016,08,19,14,03,29.40
2016,08,19,14,04,29.50
2016,08,19,14,05,29.50
2016,08,19,14,06,29.40
2016,08,19,14,07,29.40
2016,08,19,14,08,29.40
2016,08,19,14,09,29.50
2016,08,19,14,10,29.50
2016,08,19,14,11,29.60
2016,08,19,14,12,29.60
2016,08,19,14,13,29.70
2016,08,19,14,14,29.80
2016,08,19,14,15,30.00
2016,08,19,14,16,30.00
2016,08,19,14,17,30.00
2016,08,19,14,18,30.00
2016,08,19,14,19,30.00
2016,08,19,14,20,29.90
2016,08,19,14,21,29.90
2016,08,19,14,22,29.80
2016,08,19,14,23,29.70
2016,08,19,14,24,29.80
2016,08,19,14,25,29.80
2016,08,19,14,26,29.80
2016,08,19,14,27,29.80
2016,08,19,14,28,29.80
2016,08,19,14,29,29.80
2016,08,19,14,30,29.70
2016,08,19,14,31,29.70
2016,08,19,14,32,29.70
2016,08,19,14,33,29.80
2016,08,19,14,34,29.80
2016,08,19,14,35,29.80
2016,08,19,14,36,29.90
2016,08,19,14,37,29.90
2016,08,19,14,38,29.90
2016,08,19,14,39,29.90
2016,08,19,14,40,29.90
2016,08,19,14,41,30.00
2016,08,19,14,42,30.00
2016,08,19,14,43,30.00
2016,08,19,14,44,30.00
2016,08,19,14,45,30.10
2016,08,19,14,46,30.00
2016,08,19,14,47,30.00
2016,08,19,14,48,29.90
2016,08,19,14,49,30.00
2016,08,19,14,50,30.00
2016,08,19,14,51,30.00
2016,08,19,14,52,30.10
2016,08,19,14,53,30.00
2016,08,19,14,54,30.00
2016,08,19,14,55,30.10
2016,08,19,14,56,30.10
2016,08,19,14,57,30.10
2016,08,19,14,58,30.20
2016,08,19,14,59,30.20
2016,08,19,15,00,30.20
2016,08,19,15,01,30.20
2016,08,19,15,02,30.30
2016,08,19,15,03,30.30
2016,08,19,15,04,30.40
2016,08,19,15,05,30.40
2016,08,19,15,06,30.50
2016,08,19,15,07,30.60
2016,08,19,15,08,30.60
2016,08,19,15,09,30.70
2016,08,19,15,10,30.70
2016,08,19,15,11,30.80
2016,08,19,15,12,30.80
2016,08,19,15,13,30.80
2016,08,19,15,14,30.80
2016,08,19,15,15,30.80
2016,08,19,15,16,30.80
2016,08,19,15,17,30.90
2016,08,19,15,18,30.90
2016,08,19,15,19,31.00
2016,08,19,15,20,31.00
2016,08,19,15,21,31.10
2016,08,19,15,22,31.20
2016,08,19,15,23,31.30
2016,08,19,15,24,31.40
2016,08,19,15,25,31.50
2016,08,19,15,26,31.60
2016,08,19,15,27,31.70
2016,08,19,15,28,31.80
2016,08,19,15,29,31.80
2016,08,19,15,30,31.90
2016,08,19,15,31,31.90
2016,08,19,15,32,31.90
2016,08,19,15,33,31.90
2016,08,19,15,34,31.90
2016,08,19,15,35,31.90
2016,08,19,15,36,31.90
2016,08,19,15,37,31.90
2016,08,19,15,38,31.90
2016,08,19,15,39,31.90
2016,08,19,15,40,31.90
2016,08,19,15,41,31.90
2016,08,19,15,42,31.90
2016,08,19,15,43,31.90
2016,08,19,15,44,31.90
2016,08,19,15,45,31.90
2016,08,19,15,46,31.90
2016,08,19,15,47,31.90
2016,08,19,15,48,31.90
2016,08,19,15,49,31.90
2016,08,19,15,50,31.90
2016,08,19,15,51,31.90
2016,08,19,15,52,31.80
2016,08,19,15,53,31.70
2016,08,19,15,54,31.60
2016,08,19,15,55,31.60
2016,08,19,15,56,31.60
2016,08,19,15,57,31.50
2016,08,19,15,58,31.50
2016,08,19,15,59,31.40
2016,08,19,16,00,31.40
2016,08,19,16,01,31.40
2016,08,19,16,02,31.30
2016,08,19,16,03,31.40
2016,08,19,16,04,31.40
2016,08,19,16,05,31.40
2016,08,19,16,06,31.40
2016,08,19,16,07,31.40
2016,08,19,16,08,31.50
2016,08,19,16,09,31.50
2016,08,19,16,10,31.60
2016,08,19,16,11,31.60
2016,08,19,16,12,31.60
2016,08,19,16,13,31.60
2016,08,19,16,14,31.70
2016,08,19,16,15,31.70
2016,08,19,16,16,31.80
2016,08,19,16,17,31.90
2016,08,19,16,18,31.90
2016,08,19,16,19,32.00
2016,08,19,16,20,32.10
2016,08,19,16,21,32.10
2016,08,19,16,22,32.10
2016,08,19,16,23,32.20
2016,08,19,16,24,32.20
2016,08,19,16,25,32.20
2016,08,19,16,26,32.30
2016,08,19,16,27,32.30
2016,08,19,16,28,32.20
2016,08,19,16,29,32.20
2016,08,19,16,30,32.20
2016,08,19,16,31,32.20
2016,08,19,16,32,32.30
2016,08,19,16,33,32.30
2016,08,19,16,34,32.20
2016,08,19,16,35,32.20
2016,08,19,16,36,32.10
2016,08,19,16,37,32.10
2016,08,19,16,38,32.20
2016,08,19,16,39,32.20
2016,08,19,16,40,32.20
2016,08,19,16,41,32.30
2016,08,19,16,42,32.30
2016,08,19,16,43,32.30
2016,08,19,16,44,32.30
2016,08,19,16,45,32.30
2016,08,19,16,46,32.20
2016,08,19,16,47,32.20
2016,08,19,16,48,32.20
2016,08,19,16,49,32.10
2016,08,19,16,50,32.10
2016,08,19,16,51,32.00
2016,08,19,16,52,32.00
2016,08,19,16,53,32.00
2016,08,19,16,54,31.90
2016,08,19,16,55,31.90
2016,08,19,16,56,31.90
2016,08,19,16,57,32.00
2016,08,19,16,58,32.00
2016,08,19,16,59,32.10
2016,08,19,17,00,32.10
2016,08,19,17,01,32.10
2016,08,19,17,02,32.10
2016,08,19,17,03,32.10
2016,08,19,17,04,32.10
2016,08,19,17,05,32.10
2016,08,19,17,06,32.10
2016,08,19,17,07,32.10
2016,08,19,17,08,32.10
2016,08,19,17,09,32.10
2016,08,19,17,10,32.10
2016,08,19,17,11,32.00
2016,08,19,17,12,32.00
2016,08,19,17,13,32.00
2016,08,19,17,14,32.00
2016,08,19,17,15,32.00
2016,08,19,17,16,31.90
2016,08,19,17,17,31.90
2016,08,19,17,18,31.90
2016,08,19,17,19,31.80